Weather History for Ocala, FL

Change the Weather History Date:

Tuesday, February 19, 2013

  Actual Average Record
Temperature  
Mean Temperature 59 °F -  
Max Temperature 77 °F 71 °F 80 °F (2000)
Min Temperature 41 °F 46 °F 26 °F (2007)
Degree Days  
Heating Degree Days 6    
Growing Degree Days 9 (Base 50)    
Moisture  
Dew Point 47 °F    
Average Humidity 74    
Maximum Humidity 87    
Minimum Humidity 39    
Precipitation  
Precipitation 0.00 in - - ()
Sea Level Pressure  
Sea Level Pressure 30.16 in    
Wind  
Wind Speed 3 mph (SSW)    
Max Wind Speed 20 mph    
Max Gust Speed 32 mph    
Visibility 10 miles    
Events      
Averages and records for this station are not official NWS values.
T = Trace of Precipitation, MM = Missing Value Source: NWS Daily Summary

Daily Weather History Graph

Daily Weather History Graph

Search for Another Location

Airport:

Trip Planner

Search our weather history database for the weather conditions in past years. The results will help you decide how hot, cold, wet, or windy it might be!

Date:

Astronomy

Feb. 19, 2013 Rise Set
Actual Time 7:03 AM EST 6:21 PM EST
Civil Twilight 6:39 AM EST 6:45 PM EST
Nautical Twilight 6:12 AM EST 7:13 PM EST
Astronomical Twilight 5:44 AM EST 7:41 PM EST
Moon 1:06 PM EST (2/19) 2:21 AM EST (2/19)
Length of Visible Light 12h 05m
Length of Day
11h 17m
Waxing Gibbous, 67% of the Moon is Illuminated
Feb 19
Waxing Gibbous
Feb 25
Full
Mar 4
Last Quarter
Mar 11
New
Mar 19
First Quarter

Hourly Weather History & Observations

Time (EST) Temp. Windchill Dew Point Humidity Pressure Visibility Wind Dir Wind Speed Gust Speed Precip Events Conditions
12:15 AM 46.4 °F - 41.0 °F 81% 30.25 in 10.0 mi Calm Calm - N/A   Clear
12:35 AM 44.6 °F - 39.2 °F 81% 30.25 in 10.0 mi Calm Calm - N/A   Clear
12:55 AM 44.6 °F - 41.0 °F 87% 30.24 in 10.0 mi Calm Calm - N/A   Clear
1:35 AM 42.8 °F - 39.2 °F 87% 30.25 in 10.0 mi Calm Calm - N/A   Clear
1:55 AM 42.8 °F - 39.2 °F 87% 30.23 in 10.0 mi Calm Calm - N/A   Clear
2:15 AM 42.8 °F - 37.4 °F 81% 30.22 in 10.0 mi Calm Calm - N/A   Clear
2:35 AM 42.8 °F - 37.4 °F 81% 30.21 in 10.0 mi Calm Calm - N/A   Clear
2:55 AM 41.0 °F - 37.4 °F 87% 30.19 in 10.0 mi Calm Calm - N/A   Clear
3:15 AM 42.8 °F - 39.2 °F 87% 30.19 in 10.0 mi Calm Calm - N/A   Clear
3:35 AM 42.8 °F - 39.2 °F 87% 30.19 in 10.0 mi Calm Calm - N/A   Partly Cloudy
3:55 AM 44.6 °F - 41.0 °F 87% 30.19 in 10.0 mi Calm Calm - N/A   Partly Cloudy
4:15 AM 48.2 °F - 44.6 °F 87% 30.18 in 10.0 mi South 3.5 mph - N/A   Clear
4:35 AM 50.0 °F - 42.8 °F 76% 30.18 in 10.0 mi South 5.8 mph - N/A   Clear
4:55 AM 46.4 °F 45.2 °F 41.0 °F 81% 30.18 in 10.0 mi South 3.5 mph - N/A   Clear
5:15 AM 46.4 °F 45.2 °F 41.0 °F 81% 30.18 in 10.0 mi SSE 3.5 mph - N/A   Clear
5:35 AM 48.2 °F - 42.8 °F 82% 30.17 in 10.0 mi South 4.6 mph - N/A   Clear
5:55 AM 48.2 °F - 42.8 °F 82% 30.17 in 10.0 mi South 4.6 mph - N/A   Clear
6:15 AM 48.2 °F - 42.8 °F 82% 30.18 in 10.0 mi South 3.5 mph - N/A   Clear
6:50 AM 46.4 °F 45.2 °F 41.0 °F 81% 30.18 in 10.0 mi SSW 3.5 mph - N/A   Partly Cloudy
7:50 AM 46.4 °F - 42.8 °F 87% 30.19 in 10.0 mi Calm Calm - N/A   Partly Cloudy
9:50 AM 66.2 °F - 51.8 °F 60% 30.18 in 10.0 mi South 15.0 mph - N/A   Clear
10:50 AM 71.6 °F - 51.8 °F 50% 30.18 in 10.0 mi SSW 18.4 mph 23.0 mph N/A   Clear
12:50 PM 75.2 °F - 50.0 °F 41% 30.14 in 10.0 mi SW 19.6 mph 32.2 mph N/A   Scattered Clouds
1:50 PM 77.0 °F - 50.0 °F 39% 30.10 in 10.0 mi SW 15.0 mph 27.6 mph N/A   Scattered Clouds
2:50 PM 77.0 °F - 51.8 °F 41% 30.08 in 10.0 mi SW 19.6 mph 29.9 mph N/A   Partly Cloudy
4:50 PM 75.2 °F - 53.6 °F 47% 30.07 in 10.0 mi West 18.4 mph 25.3 mph N/A   Partly Cloudy
5:50 PM 71.6 °F - 53.6 °F 53% 30.08 in 10.0 mi SW 11.5 mph - N/A   Partly Cloudy
7:55 PM 66.2 °F - 55.4 °F 68% 30.11 in 10.0 mi SW 6.9 mph - N/A   Clear
8:15 PM 64.4 °F - 53.6 °F 68% 30.11 in 10.0 mi SW 5.8 mph - N/A   Clear
8:35 PM 64.4 °F - 53.6 °F 68% 30.10 in 10.0 mi SW 5.8 mph - N/A   Scattered Clouds
8:55 PM 62.6 °F - 53.6 °F 72% 30.11 in 10.0 mi SW 4.6 mph - N/A   Mostly Cloudy
9:15 PM 62.6 °F - 53.6 °F 72% 30.11 in 10.0 mi SSW 5.8 mph - N/A   Scattered Clouds
9:35 PM 60.8 °F - 53.6 °F 77% 30.11 in 10.0 mi WSW 3.5 mph - N/A   Partly Cloudy
10:15 PM 62.6 °F - 55.4 °F 77% 30.11 in 10.0 mi SSW 4.6 mph - N/A   Mostly Cloudy
10:35 PM 62.6 °F - 55.4 °F 77% 30.11 in 10.0 mi NW 4.6 mph - N/A   Mostly Cloudy
10:55 PM 64.4 °F - 57.2 °F 77% 30.10 in 10.0 mi Calm Calm - N/A   Overcast
11:15 PM 62.6 °F - 57.2 °F 82% 30.10 in 10.0 mi SSW 4.6 mph - N/A   Overcast
11:35 PM 62.6 °F - 57.2 °F 82% 30.10 in 10.0 mi Calm Calm - N/A   Mostly Cloudy
11:55 PM 62.6 °F - 57.2 °F 82% 30.11 in 10.0 mi Calm Calm - N/A   Mostly Cloudy